Wind_Speed
44 44 45 46 46 46 46 47 48 49 49 50 49 49 49 49 49 49 48 48 47 46 45 45 45 45 46 47 46 46 46 45 45 45 45 44 44 44 44 45 45 45 44
45 46 47 47 47 47 47 47 48 49 49 49 49 49 50 50 50 49 48 48 47 46 45 45 46 46 46 46 46 45 45 45 46 46 45 45 45 45 45 44 44 45 44
44 46 46 47 47 47 47 48 48 48 48 48 48 48 49 49 49 48 48 47 47 47 46 46 46 46 45 45 46 46 45 45 46 45 45 46 45 45 45 44 44 44 44
44 45 45 46 47 47 47 46 46 46 47 47 47 46 46 47 47 48 48 47 46 46 46 46 46 46 46 46 46 46 45 45 45 45 45 44 44 44 44 43 43 43 44
42 43 44 44 44 45 45 44 44 44 44 44 45 46 46 46 45 46 47 46 45 46 46 46 46 45 45 45 45 46 46 45 45 44 44 44 44 43 43 43 43 43 43
42 43 43 43 44 44 44 43 41 42 42 42 44 44 44 44 43 43 44 45 44 44 44 44 45 44 43 43 44 44 44 44 44 44 44 44 44 44 44 43 43 43 43
42 41 41 41 41 42 43 42 41 41 42 42 42 42 43 43 42 41 41 42 43 42 42 42 42 43 42 42 42 43 44 44 44 43 43 44 44 43 43 43 43 43 43
39 39 39 39 40 40 40 41 42 41 41 41 41 41 41 41 41 41 40 41 42 42 42 42 43 43 42 41 42 43 43 43 43 43 43 43 43 42 42 42 42 43 43
37 37 37 37 37 38 38 39 39 39 39 39 39 40 40 40 41 41 41 41 42 42 41 41 41 42 41 42 41 41 41 42 42 42 42 42 42 41 41 41 42 43 43
35 35 35 35 35 36 36 36 36 37 38 38 37 38 39 40 40 40 40 40 40 40 40 40 40 40 39 40 40 39 39 39 40 41 40 41 40 40 41 41 42 42 42
33 33 34 34 34 35 35 35 35 36 37 37 37 37 38 38 37 37 38 38 38 38 39 39 38 38 38 38 38 38 38 39 39 39 39 39 40 40 41 42 42 42 42
32 32 33 34 34 35 35 35 35 35 35 35 35 36 35 36 36 36 36 36 37 37 37 37 36 36 37 36 37 36 36 37 38 39 39 39 40 40 40 40 41 42 42
31 31 31 32 32 33 33 33 33 33 33 32 33 33 33 34 33 33 33 34 35 36 35 35 36 36 36 35 35 35 35 36 38 38 38 39 39 39 40 40 40 40 40
29 30 30 30 31 32 32 32 32 31 31 31 31 32 33 33 33 33 33 33 34 34 33 34 35 36 35 35 34 35 35 35 35 36 36 37 38 38 38 39 39 39 39
28 28 28 29 29 29 30 30 31 30 30 30 31 31 31 32 33 33 33 33 32 32 32 31 32 33 33 33 34 34 34 34 34 35 35 36 37 37 37 37 37 38 38
27 26 26 27 27 28 28 28 28 28 28 28 29 30 30 31 32 32 32 32 32 31 31 30 30 31 32 32 33 33 33 33 33 33 33 34 35 35 35 35 36 36 36
26 26 26 25 26 25 25 24 24 25 25 27 27 28 28 29 29 30 30 29 29 29 29 30 30 30 30 31 31 31 30 30 31 31 31 32 32 33 34 34 35 35 35
26 26 25 24 23 23 23 23 23 24 25 25 26 26 26 27 27 27 28 29 29 29 29 29 29 29 29 28 28 29 30 30 31 31 31 31 32 32 34 34 34 34 34
26 25 24 23 22 21 21 22 22 23 24 25 25 26 26 26 26 27 27 28 28 29 29 29 29 28 28 28 28 29 30 31 31 31 31 31 32 32 33 34 33 33 33
25 24 23 22 21 20 21 21 22 23 23 24 24 25 25 25 25 26 26 27 27 28 29 29 28 28 28 28 29 29 30 30 31 31 31 31 32 32 33 33 33 32 32
24 23 23 23 22 21 21 21 21 22 22 23 23 24 24 25 25 26 27 27 27 27 28 29 29 29 29 29 29 29 30 30 31 31 32 32 32 33 33 33 32 32 31
23 23 23 23 23 22 22 21 21 20 20 20 22 23 23 24 24 25 25 26 27 27 27 28 29 29 29 29 30 30 31 31 31 32 32 32 33 32 32 31 31 31 30
23 22 22 22 22 22 22 21 20 19 19 19 20 21 22 23 23 24 25 26 26 26 27 27 28 29 29 30 30 30 31 31 31 31 31 32 31 31 30 30 30 29 28
22 22 22 22 22 21 21 21 20 19 19 19 19 20 20 21 22 23 24 24 25 26 26 26 27 29 30 30 30 30 30 30 30 30 30 30 29 29 28 28 27 26 25
22 22 22 21 21 21 20 20 20 19 19 19 19 19 19 20 20 21 22 23 24 25 25 26 27 28 28 28 28 28 27 28 28 28 28 27 27 27 27 26 25 24 23
20 20 20 21 21 20 20 20 19 19 19 18 18 18 19 19 20 20 21 22 23 23 24 25 25 26 26 27 27 27 26 26 26 26 25 25 24 24 24 24 23 22 21
Wind_Direction
264 265 266 266 266 266 266 267 267 267 266 264 265 264 262 262 262 263 264 265 266 267 268 269 269 270 269 269 269 269 270 271 272 273 274 276 277 278 279 279 281 281 281
266 266 266 267 268 268 268 269 269 268 267 267 265 262 261 261 262 263 263 264 265 266 267 268 269 269 269 268 268 268 271 272 272 273 275 276 278 279 280 280 280 281 281
267 267 268 268 269 269 269 269 269 269 268 266 265 264 262 261 262 261 262 263 264 265 267 268 269 268 267 267 268 269 271 271 272 274 275 276 278 278 280 281 281 281 281
269 270 270 270 269 270 270 269 269 268 267 266 264 263 262 263 263 262 261 262 263 264 265 267 268 267 266 267 267 268 269 271 272 273 275 276 278 278 279 280 281 282 282
272 272 272 271 270 269 270 269 269 268 267 265 264 262 263 264 264 262 261 262 264 265 266 267 267 267 266 267 267 267 268 270 271 273 274 275 277 278 278 279 280 281 282
274 274 273 272 271 270 270 268 268 267 266 265 264 263 263 264 264 264 263 262 263 264 265 265 265 264 265 266 266 267 268 269 271 272 274 275 276 278 278 278 280 282 284
275 274 273 272 271 270 269 268 267 267 265 265 265 263 263 264 264 264 264 264 263 263 264 263 262 262 264 265 266 267 268 269 271 272 274 275 276 277 278 279 280 281 283
274 273 274 274 272 270 268 268 267 267 266 266 265 263 263 262 262 263 264 263 263 263 264 263 261 262 263 263 265 267 269 269 270 272 274 274 275 277 279 279 280 282 283
275 275 276 275 273 271 270 269 268 267 266 266 265 264 262 261 261 263 264 264 262 262 262 262 262 262 262 263 265 268 269 269 271 273 274 274 275 278 280 280 281 282 283
277 277 278 276 274 273 272 271 270 268 266 266 266 265 264 262 262 263 264 264 263 261 260 261 261 262 262 263 265 267 269 271 273 274 275 275 276 278 280 281 282 283 283
280 280 280 278 275 274 271 269 270 271 269 267 266 265 263 262 261 262 262 261 261 261 260 260 263 265 265 266 266 267 269 271 273 274 275 276 277 279 280 281 282 283 284
282 282 281 280 278 275 272 272 273 273 271 268 266 264 261 259 260 261 261 261 260 260 260 261 263 265 266 266 267 267 269 270 271 273 273 276 279 281 281 281 282 284 285
284 283 283 281 279 277 276 275 275 273 270 266 263 261 261 261 260 260 260 261 261 260 261 262 263 265 265 265 266 267 269 270 272 273 274 277 279 281 280 281 282 284 285
288 285 283 281 280 278 277 277 275 272 268 265 264 263 262 261 260 260 260 259 261 261 262 263 263 264 265 266 266 267 269 271 273 274 276 277 279 280 281 282 283 284 285
289 287 284 282 280 278 277 277 274 271 268 267 266 265 264 263 261 261 260 259 260 263 263 264 265 264 264 264 266 267 269 271 273 275 278 279 280 281 282 283 284 285 285
288 288 286 284 283 281 278 275 273 269 267 266 267 266 264 264 263 261 260 259 261 263 263 264 265 264 264 266 268 269 271 272 274 276 279 280 281 282 283 284 285 286 286
288 288 288 287 286 284 279 275 272 270 268 268 267 267 265 264 263 262 261 259 259 261 263 265 266 268 269 269 270 271 271 273 276 279 282 283 284 283 284 286 287 288 288
287 286 288 288 288 283 280 277 274 272 270 268 268 267 266 263 262 262 262 261 260 262 264 266 267 269 270 271 272 272 273 276 279 282 283 285 285 285 286 287 289 288 288
286 285 285 287 288 285 281 278 276 275 272 269 268 268 266 264 262 261 263 263 262 263 264 266 268 270 271 272 272 274 277 279 281 282 283 284 285 287 288 288 288 288 289
284 282 282 283 285 286 284 282 280 278 276 272 269 267 266 264 263 261 263 264 265 265 264 265 266 267 270 273 274 276 278 280 281 282 282 283 285 287 288 287 287 287 288
284 281 280 282 282 284 285 284 282 280 277 274 271 268 266 263 262 263 264 264 266 266 266 266 266 266 269 273 275 277 279 280 281 281 282 283 285 286 287 287 286 286 286
283 281 280 281 280 282 284 285 283 282 279 276 271 268 265 264 264 265 265 265 266 268 267 266 266 267 269 272 275 278 279 280 282 282 283 284 285 286 286 286 286 285 285
283 282 281 282 282 282 283 283 283 282 280 277 274 271 267 265 265 266 267 268 268 268 269 269 269 270 271 273 276 278 279 280 281 283 284 284 285 285 284 283 283 284 283
283 283 281 281 283 283 282 281 280 278 277 276 274 274 272 271 269 269 270 271 270 270 270 271 271 271 272 275 276 277 278 280 282 283 284 284 284 283 283 283 282 282 281
285 284 282 280 280 281 281 280 278 277 277 276 277 276 276 276 276 274 273 274 273 272 271 271 272 272 273 275 277 278 279 280 282 283 285 285 284 283 283 283 282 280 279
286 284 282 280 278 278 279 280 279 276 275 276 277 279 279 279 279 277 275 274 274 274 273 272 273 273 273 275 277 279 280 281 282 284 285 285 284 283 283 282 280 278 278
Height
5665 5665 5664 5664 5663 5662 5661 5661 5661 5661 5661 5661 5661 5661 5662 5663 5663 5664 5665 5665 5666 5666 5666 5666 5667 5667 5667 5667 5667 5667 5667 5666 5666 5666 5665 5664 5662 5661 5659 5657 5655 5654 5652
5653 5652 5651 5651 5650 5649 5648 5648 5647 5647 5646 5647 5647 5647 5648 5649 5650 5651 5652 5653 5653 5653 5654 5654 5655 5654 5654 5655 5655 5655 5655 5655 5654 5654 5653 5652 5651 5649 5647 5645 5644 5643 5641
5640 5639 5638 5637 5637 5635 5635 5634 5633 5632 5632 5632 5633 5634 5635 5636 5637 5638 5639 5639 5640 5640 5641 5641 5642 5642 5642 5642 5643 5643 5643 5643 5642 5642 5641 5640 5639 5638 5636 5634 5633 5632 5630
5628 5627 5625 5624 5623 5622 5621 5620 5619 5619 5619 5619 5619 5621 5621 5622 5623 5624 5625 5626 5626 5627 5627 5628 5629 5629 5629 5630 5630 5631 5631 5630 5630 5630 5629 5629 5628 5626 5625 5623 5622 5621 5619
5616 5614 5612 5611 5609 5608 5607 5606 5606 5606 5606 5606 5607 5608 5609 5609 5610 5610 5611 5612 5613 5614 5614 5615 5616 5616 5617 5617 5618 5618 5618 5618 5618 5618 5617 5617 5616 5615 5614 5612 5611 5609 5607
5603 5601 5599 5597 5596 5595 5594 5594 5593 5594 5593 5594 5594 5596 5596 5597 5598 5598 5598 5599 5600 5601 5601 5602 5603 5604 5605 5606 5606 5606 5607 5606 5606 5606 5606 5605 5605 5604 5602 5601 5599 5598 5596
5591 5588 5586 5584 5583 5582 5582 5582 5581 5581 5581 5581 5582 5583 5584 5585 5586 5586 5586 5587 5587 5588 5589 5590 5591 5593 5593 5594 5595 5595 5595 5595 5595 5595 5594 5594 5593 5593 5591 5589 5588 5586 5584
5580 5577 5575 5573 5571 5570 5569 5569 5569 5569 5569 5569 5570 5571 5572 5573 5574 5574 5575 5575 5576 5577 5578 5579 5580 5581 5582 5582 5583 5583 5583 5584 5584 5584 5584 5583 5582 5581 5579 5578 5576 5574 5572
5569 5566 5564 5562 5560 5559 5558 5557 5557 5557 5557 5557 5558 5559 5560 5561 5562 5563 5563 5564 5565 5566 5567 5568 5568 5569 5570 5571 5572 5572 5573 5573 5573 5572 5572 5571 5570 5569 5568 5566 5565 5563 5561
5558 5556 5554 5551 5550 5548 5547 5547 5546 5546 5545 5545 5546 5547 5548 5549 5550 5552 5552 5553 5554 5555 5556 5557 5557 5558 5559 5560 5560 5561 5562 5562 5562 5562 5561 5560 5559 5558 5557 5555 5553 5551 5549
5549 5547 5544 5542 5540 5539 5538 5537 5536 5535 5535 5535 5535 5536 5537 5539 5540 5541 5541 5542 5543 5544 5546 5547 5547 5548 5549 5550 5550 5551 5551 5552 5551 5551 5550 5549 5548 5547 5545 5543 5541 5539 5537
5540 5538 5535 5533 5531 5529 5528 5527 5526 5525 5525 5525 5525 5525 5526 5527 5529 5530 5531 5532 5533 5534 5536 5537 5537 5538 5538 5539 5539 5540 5541 5541 5541 5540 5540 5539 5538 5536 5534 5532 5530 5527 5525
5531 5528 5526 5523 5521 5520 5518 5517 5516 5516 5515 5515 5515 5516 5517 5518 5519 5520 5521 5522 5523 5524 5526 5526 5527 5528 5528 5529 5529 5530 5530 5530 5530 5529 5529 5528 5527 5525 5523 5521 5518 5516 5513
5523 5520 5517 5515 5512 5510 5509 5508 5507 5506 5506 5506 5506 5507 5508 5509 5510 5511 5512 5513 5514 5515 5516 5516 5517 5518 5518 5519 5520 5520 5520 5520 5520 5519 5518 5517 5515 5514 5512 5510 5507 5505 5503
5514 5512 5509 5506 5504 5502 5500 5499 5498 5497 5497 5498 5498 5499 5499 5501 5501 5502 5503 5504 5505 5506 5507 5507 5507 5508 5509 5510 5510 5511 5511 5510 5510 5509 5508 5507 5505 5503 5501 5499 5497 5494 5492
5506 5504 5501 5498 5496 5494 5492 5490 5489 5488 5488 5488 5489 5490 5491 5492 5492 5493 5494 5495 5496 5497 5498 5498 5499 5499 5501 5501 5501 5501 5502 5501 5500 5499 5498 5497 5495 5493 5491 5489 5486 5484 5481
5499 5496 5493 5490 5488 5486 5484 5483 5481 5480 5480 5480 5480 5481 5482 5482 5483 5484 5485 5486 5487 5488 5489 5490 5490 5491 5492 5492 5493 5493 5492 5492 5491 5490 5488 5487 5485 5483 5481 5479 5476 5474 5471
5491 5489 5486 5484 5481 5479 5477 5475 5474 5473 5473 5472 5472 5473 5473 5474 5475 5476 5477 5478 5479 5479 5480 5481 5482 5483 5484 5484 5484 5484 5483 5482 5481 5480 5479 5477 5476 5474 5472 5470 5467 5464 5462
5484 5482 5479 5477 5475 5472 5470 5469 5468 5467 5466 5466 5466 5465 5465 5466 5466 5468 5469 5470 5471 5472 5472 5473 5474 5475 5475 5475 5475 5475 5474 5473 5472 5471 5470 5468 5467 5465 5463 5460 5458 5455 5453
5476 5474 5472 5470 5468 5466 5464 5463 5461 5460 5459 5459 5458 5458 5458 5458 5459 5460 5461 5462 5463 5463 5464 5465 5466 5467 5467 5467 5466 5466 5465 5464 5463 5462 5461 5459 5458 5456 5454 5451 5449 5446 5444
5469 5467 5465 5464 5462 5460 5458 5457 5455 5454 5453 5452 5451 5451 5451 5452 5452 5453 5454 5454 5455 5455 5456 5457 5457 5458 5458 5458 5457 5457 5456 5455 5454 5453 5451 5450 5448 5446 5444 5442 5440 5437 5435
5461 5460 5458 5457 5455 5454 5452 5450 5449 5447 5446 5446 5445 5445 5445 5445 5445 5446 5446 5447 5447 5447 5447 5448 5449 5449 5449 5449 5449 5448 5447 5446 5445 5443 5441 5440 5438 5436 5435 5433 5430 5428 5426
5454 5452 5451 5450 5449 5447 5446 5444 5443 5442 5441 5440 5439 5439 5438 5438 5438 5439 5439 5439 5439 5439 5440 5440 5440 5440 5440 5440 5440 5439 5438 5437 5435 5434 5432 5431 5429 5427 5425 5423 5422 5420 5418
5447 5445 5444 5443 5442 5440 5439 5438 5437 5436 5435 5434 5433 5433 5432 5432 5432 5431 5431 5431 5431 5432 5432 5432 5432 5432 5432 5431 5431 5430 5429 5428 5426 5425 5423 5421 5420 5418 5416 5415 5413 5411 5410
5439 5438 5437 5436 5435 5434 5432 5432 5431 5430 5429 5428 5427 5427 5426 5426 5425 5425 5424 5424 5424 5424 5424 5424 5424 5424 5424 5423 5422 5421 5420 5419 5418 5416 5415 5413 5411 5410 5408 5407 5405 5404 5403
5432 5431 5430 5429 5428 5427 5426 5425 5424 5424 5423 5422 5422 5421 5420 5420 5419 5418 5418 5418 5417 5417 5417 5417 5417 5416 5416 5415 5414 5413 5412 5411 5410 5408 5407 5405 5404 5402 5401 5400 5398 5397 5397